Zurück zum Katalog

H-2A R/B

AktivVLEO
NORAD 41341·ROCKET BODY·🇯🇵 Japan

Gestartet Feb 17, 2016 von Tanegashima Space Center

Loading…

Nächste Überflüge (nächste 24 Stunden)

TLE

AktuellSource: Space-Track

Epoche: Sep 14, 2026, 09:58 UTC

1 41341U 16012E   26257.41594413  .00051702  00000-0  49079-3 0  9993
2 41341  30.6210   5.9732 0004779 143.0025 217.0951 15.65535706585494

Verfolge H-2A R/B in Echtzeit mit AllMySat

Download on the App Store